Content
SEND FEEDBACK

Daily
Averages
Monthly
Summary
United States of America

GRUNDY, VIRGINIA


Home > North America > United States > Virginia
Elevation: 1720 feet     Latitude: 37 16N     Longitude: 082 05W

WEATHER
 
SELECT A DAY
Number of Records: 123,997;   Date Range: 11/25/08 - 7/29/14
 
SHARE

PRINT THIS DATA

[ ← Previous Day ]
WEATHER ALMANAC - JANUARY 31, 2013
[ Next Day → ]
[ °C ]   °F
Weather ElementAverageHighLow
Temperature28 °F35.6 °F (12:35 am)24.8 °F (7:15 am)
Dewpoint23.4 °F35.6 °F (12:35 am)19.4 °F (7:15 am)
Humidity83.6 %100 % (12:35 am)69 % (2:35 pm)
Barometer29.77 in29.88 in (6:55 pm)29.50 in (12:35 am)
Wind Speed12.3 mph21.9 mph (4:15 am)
Wind Gust36.8 mph (4:15 am)
Weather ElementAverage
Visibility8.3 mi
Wind DirectionWSW (239.9 °)

Weather ElementTotal
Precipitation---
Heating Degree Days34.8 (Base 65)
Averaged from 68 records on January 31, 2013
WEATHER CONDITIONS BREAKOUT
WIND DIRECTION BREAKOUT
WEATHER BY HOUR - JANUARY 31, 2013
[ °C ]   °F
Local TimeTemperatureDewpointHumidityBarometerVisibilityWind DirectionWind SpeedGust SpeedPrecipitationEventsConditions
12:35 AM35.6 °F35.6 °F100 %29.50 in10.0 miWest (260°)13.8 mphPartly Cloudy
12:55 AM35.6 °F35.6 °F100 %29.50 in10.0 miWest (260°)16.1 mph
1:15 AM35.6 °F35.6 °F100 %29.51 in10.0 miWest (270°)11.5 mph
1:35 AM35.6 °F35.6 °F100 %29.53 in5.0 miWest (270°)10.4 mphPartly Cloudy
1:55 AM33.8 °F33.8 °F100 %29.53 in8.0 miWest (270°)16.1 mphScattered Clouds
2:15 AM33.8 °F33.8 °F100 %29.55 in6.0 miWest (270°)17.3 mph
2:35 AM32.0 °F32.0 °F100 %29.56 in2.5 miWest (280°)10.4 mph
2:55 AM30.2 °F30.2 °F100 %29.58 in3.0 miWest (280°)12.7 mph
3:15 AM30.2 °F30.2 °F100 %29.59 in4.0 miWest (270°)9.2 mph24.2 mph
3:35 AM30.2 °F28.4 °F93 %29.61 in5.0 miWest (280°)15.0 mph
3:55 AM28.4 °F28.4 °F100 %29.62 in2.5 miWest (280°)16.1 mph28.8 mph
4:15 AM28.4 °F26.6 °F93 %29.63 in10.0 miWest (270°)21.9 mph36.8 mph
4:35 AM26.6 °F24.8 °F93 %29.65 in10.0 miWest (270°)20.7 mph36.8 mphScattered Clouds
4:55 AM26.6 °F24.8 °F93 %29.67 in10.0 miWest (260°)16.1 mph31.1 mphScattered Clouds
5:15 AM26.6 °F24.8 °F93 %29.66 in10.0 miWest (260°)13.8 mph32.2 mphPartly Cloudy
5:35 AM26.6 °F23.0 °F86 %29.67 in10.0 miWest (260°)15.0 mphPartly Cloudy
6:15 AM26.6 °F23.0 °F86 %29.69 in10.0 miWest (260°)18.4 mph28.8 mphPartly Cloudy
6:35 AM26.6 °F21.2 °F80 %29.70 in10.0 miWest (280°)17.3 mphScattered Clouds
6:55 AM26.6 °F21.2 °F80 %29.71 in8.0 miWest (260°)13.8 mphPartly Cloudy
7:15 AM24.8 °F19.4 °F80 %29.71 in10.0 miWest (270°)10.4 mphScattered Clouds
7:35 AM24.8 °F21.2 °F86 %29.72 in10.0 miWest (280°)9.2 mphPartly Cloudy
7:55 AM24.8 °F21.2 °F86 %29.75 in10.0 miWNW (290°)16.1 mphScattered Clouds
8:15 AM24.8 °F21.2 °F86 %29.75 in7.0 miWest (280°)13.8 mphPartly Cloudy
8:35 AM24.8 °F21.2 °F86 %29.76 in5.0 miWest (280°)13.8 mph
8:55 AM24.8 °F19.4 °F80 %29.78 in10.0 miWest (270°)15.0 mph24.2 mphPartly Cloudy
9:15 AM24.8 °F19.4 °F80 %29.79 in10.0 miWest (260°)10.4 mphPartly Cloudy
9:35 AM24.8 °F19.4 °F80 %29.80 in10.0 miWNW (290°)10.4 mphPartly Cloudy
9:55 AM24.8 °F21.2 °F86 %29.81 in10.0 miWest (280°)10.4 mph
10:15 AM24.8 °F21.2 °F86 %29.82 in10.0 miWest (260°)11.5 mph
10:35 AM24.8 °F21.2 °F86 %29.82 in5.0 miWest (260°)11.5 mph
10:55 AM24.8 °F24.8 °F100 %29.83 in1.8 miWest (260°)10.4 mphClear
11:15 AM24.8 °F24.8 °F100 %29.84 in3.0 miWest (270°)10.4 mphClear
11:35 AM24.8 °F24.8 °F100 %29.84 in2.5 miWest (260°)9.2 mph
11:55 AM24.8 °F24.8 °F100 %29.83 inWest (260°)9.2 mph
12:15 PM26.6 °F24.8 °F93 %29.83 in10.0 miWest (270°)12.7 mph
12:35 PM26.6 °F24.8 °F93 %29.83 in3.0 miWNW (290°)16.1 mph
12:55 PM24.8 °F24.8 °F100 %29.83 in2.5 miWest (280°)13.8 mph
1:15 PM24.8 °F23.0 °F93 %29.82 in6.0 miWest (260°)19.6 mphClear
1:35 PM26.6 °F21.2 °F80 %29.83 in10.0 miWSW (250°)16.1 mph28.8 mph
1:55 PM26.6 °F21.2 °F80 %29.83 in4.0 miWSW (250°)16.1 mph24.2 mph
2:15 PM26.6 °F21.2 °F80 %29.84 in10.0 miWest (260°)18.4 mph
2:35 PM28.4 °F19.4 °F69 %29.84 in10.0 miWest (270°)10.4 mphScattered Clouds
2:55 PM28.4 °F19.4 °F69 %29.85 in10.0 miWest (260°)13.8 mphScattered Clouds
3:15 PM26.6 °F21.2 °F80 %29.86 in4.0 miWest (270°)10.4 mph
3:35 PM28.4 °F21.2 °F74 %29.86 in10.0 miWest (260°)12.7 mphPartly Cloudy
3:55 PM28.4 °F19.4 °F69 %29.87 in10.0 miWest (260°)12.7 mphPartly Cloudy
4:15 PM28.4 °F19.4 °F69 %29.86 in10.0 miWest (260°)12.7 mph25.3 mphScattered Clouds
4:35 PM28.4 °F21.2 °F74 %29.87 in10.0 miWest (260°)12.7 mphPartly Cloudy
4:55 PM28.4 °F21.2 °F74 %29.87 in10.0 miWest (260°)15.0 mphScattered Clouds
5:15 PM28.4 °F19.4 °F69 %29.87 in10.0 miWest (270°)8.1 mphScattered Clouds
5:35 PM28.4 °F19.4 °F69 %29.87 in10.0 miWSW (250°)11.5 mphPartly Cloudy
5:55 PM28.4 °F21.2 °F74 %29.87 in10.0 miSW (220°)8.1 mphScattered Clouds
6:15 PM28.4 °F19.4 °F69 %29.87 in10.0 miWSW (240°)6.9 mphScattered Clouds
6:35 PM28.4 °F19.4 °F69 %29.87 in10.0 miWSW (240°)8.1 mphMostly Cloudy
6:55 PM28.4 °F19.4 °F69 %29.88 in10.0 miWSW (250°)10.4 mphScattered Clouds
7:15 PM28.4 °F19.4 °F69 %29.87 in10.0 miWest (260°)11.5 mphScattered Clouds
7:35 PM28.4 °F19.4 °F69 %29.87 in10.0 miVariable5.8 mphScattered Clouds
7:55 PM28.4 °F19.4 °F69 %29.88 in10.0 miWSW (250°)9.2 mphMostly Cloudy
8:15 PM28.4 °F19.4 °F69 %29.87 in10.0 miWSW (240°)10.4 mphScattered Clouds
8:35 PM28.4 °F21.2 °F74 %29.88 in10.0 miVariable6.9 mphMostly Cloudy
8:55 PM30.2 °F21.2 °F69 %29.88 in10.0 miVariable5.8 mphScattered Clouds
9:15 PM30.2 °F21.2 °F69 %29.88 in10.0 miWSW (250°)9.2 mphMostly Cloudy
9:35 PM28.4 °F21.2 °F74 %29.87 in10.0 miVariable6.9 mphOvercast
9:55 PM28.4 °F21.2 °F74 %29.86 in10.0 miSW (230°)8.1 mphMostly Cloudy
10:15 PM28.4 °F23.0 °F80 %29.84 in10.0 miVariable6.9 mphPartly Cloudy
10:35 PM28.4 °F23.0 °F80 %29.84 in10.0 miVariable5.8 mphPartly Cloudy
10:55 PM30.2 °F23.0 °F75 %29.83 in10.0 miSW (230°)9.2 mph20.7 mphScattered Clouds
11:55 PM30.2 °F24.8 °F80 %29.82 in10.0 miWSW (240°)15.0 mph24.2 mph
Hourly data recorded from KJFZ, located miles away from Grundy, Virginia







STORIES FROM OUR PARTNERS